Find Starlink 36155

NORAD ID: 66938 Int'l Des: 2025-286 Owner: SPXS Country: US Constellation: starlink operational
LEOCIRCULAR

現在のビュー

3D地球を読み込み中...

About Starlink 36155

Starlink 36155 (NORAD 66938) is a starlink constellation satellite (v2 mini) launched Dec 7, 2025 by SPXS of US. It operates in LEO, CIRCULAR orbit with a mass of 575.00 kg.

Starlink 36155について

説明を読み込み中...

次回通過

Passes for default location (London). Set your location on the main map for personalized predictions.

高度履歴

Loading altitude history...

軌道要素

1 66938U 25286P 26195.07619910 .00013527 00000-0 41093-3 0 9999
2 66938 53.1579 129.5158 0001048 90.1297 269.9826 15.34385557 34797
Epoch: Jul 14, 2026 • Age: 9 hours

現在のステータス

高度 481.1 km
遠地点 / 近地点 N/A
速度 7.62 km/s
衛星直下点 -51.16°S, 78.18°W
打ち上げ日 Dec 7, 2025
運用期間 0.5 years
タイプ internet

技術仕様

分類 Payload
質量 575.00 kg
乾燥質量 530.00 kg
総質量 575.00 kg
長さ 0.30 m
直径 4.10 m
スパン 29.00 m
形状 Box + pan
製造者 SPXS
バスタイプ Starlink V2MO
フェーズステータス In Orbit
所有者/国 SPXS/US

Most Searched